| time (UTC) | temp F | wind direction | speed MPH | gust MPH | rain 1hr in | rain 24hr in | rain mn in | humidity % | barometer mb |
| 20260508012508 | 74 | 119 | 1.0 | 3.0 | 0.00 | 0.00 | 0.00 | 78 | 1013.5 |
| 20260508012007 | 74 | 46 | 0.0 | 3.0 | 0.00 | 0.00 | 0.00 | 78 | 1013.6 |
| 20260508011525 | 75 | 325 | 1.0 | 3.0 | 0.00 | 0.00 | 0.00 | 77 | 1013.5 |
| 20260508011013 | 75 | 44 | 0.0 | 2.0 | 0.00 | 0.00 | 0.00 | 77 | 1013.5 |
| 20260508010507 | 75 | 46 | 1.0 | 2.0 | 0.00 | 0.00 | 0.00 | 76 | 1013.4 |
| 20260508010017 | 75 | 115 | 1.0 | 3.0 | 0.00 | 0.00 | 0.00 | 76 | 1013.5 |
| 20260508005506 | 75 | 86 | 1.0 | 4.0 | 0.00 | 0.00 | 0.00 | 75 | 1013.6 |
| 20260508005006 | 75 | 56 | 2.0 | 5.0 | 0.00 | 0.00 | 0.00 | 75 | 1013.7 |
| 20260508004524 | 75 | 58 | 2.0 | 6.0 | 0.00 | 0.00 | 0.00 | 75 | 1013.7 |
| 20260508004010 | 76 | 51 | 1.0 | 6.0 | 0.00 | 0.00 | 0.00 | 75 | 1013.7 |
| 20260508003507 | 76 | 63 | 1.0 | 6.0 | 0.00 | 0.00 | 0.00 | 76 | 1013.4 |
| 20260508003021 | 76 | 23 | 1.0 | 6.0 | 0.00 | 0.00 | 0.00 | 75 | 1013.3 |
| 20260508002508 | 76 | 93 | 2.0 | 5.0 | 0.00 | 0.00 | 0.00 | 75 | 1013.4 |
| 20260508002010 | 76 | 57 | 1.0 | 5.0 | 0.00 | 0.00 | 0.00 | 74 | 1013.5 |
| 20260508001517 | 76 | 51 | 1.0 | 4.0 | 0.00 | 0.00 | 0.00 | 74 | 1013.6 |
| 20260508001010 | 77 | 63 | 1.0 | 6.0 | 0.00 | 0.00 | 0.00 | 75 | 1013.5 |
| 20260508000519 | 77 | 93 | 1.0 | 6.0 | 0.00 | 0.01 | 0.00 | 75 | 1013.6 |
| 20260508000019 | 77 | 71 | 1.0 | 8.0 | 0.00 | 0.01 | 0.00 | 74 | 1013.6 |
| 20260507235507 | 77 | 55 | 2.0 | 8.0 | 0.00 | 0.01 | 0.00 | 74 | 1013.6 |
| 20260507235006 | 77 | 309 | 1.0 | 9.0 | 0.00 | 0.01 | 0.00 | 75 | 1013.7 |
| 20260507234521 | 78 | 61 | 1.0 | 9.0 | 0.00 | 0.01 | 0.00 | 74 | 1013.7 |
| 20260507234007 | 78 | 9 | 2.0 | 9.0 | 0.00 | 0.01 | 0.00 | 75 | 1013.7 |
| 20260507233513 | 79 | 34 | 1.0 | 8.0 | 0.00 | 0.01 | 0.00 | 75 | 1013.7 |
| 20260507233023 | 79 | 78 | 3.0 | 8.0 | 0.00 | 0.01 | 0.00 | 74 | 1013.6 |
| 20260507232506 | 80 | 51 | 1.0 | 6.0 | 0.00 | 0.01 | 0.00 | 74 | 1013.5 |
| 20260507232008 | 81 | 38 | 1.0 | 5.0 | 0.00 | 0.01 | 0.00 | 74 | 1013.4 |
| 20260507231531 | 81 | 319 | 2.0 | 5.0 | 0.00 | 0.01 | 0.00 | 74 | 1013.3 |
| 20260507231008 | 81 | 137 | 1.0 | 4.0 | 0.00 | 0.01 | 0.00 | 74 | 1013.2 |
| 20260507230510 | 81 | 34 | 1.0 | 4.0 | 0.00 | 0.01 | 0.00 | 75 | 1013.3 |
| 20260507230015 | 81 | 72 | 1.0 | 3.0 | 0.00 | 0.01 | 0.00 | 75 | 1013.2 |
| 20260507225511 | 80 | 51 | 1.0 | 7.0 | 0.00 | 0.01 | 0.00 | 74 | 1013.0 |
| 20260507225009 | 81 | 51 | 2.0 | 7.0 | 0.00 | 0.01 | 0.00 | 75 | 1013.1 |
| 20260507224522 | 80 | 88 | 2.0 | 7.0 | 0.00 | 0.01 | 0.00 | 75 | 1013.1 |
| 20260507224006 | 80 | 221 | 1.0 | 7.0 | 0.00 | 0.01 | 0.00 | 76 | 1013.1 |
| 20260507223512 | 79 | 83 | 1.0 | 6.0 | 0.00 | 0.01 | 0.00 | 77 | 1012.9 |
| 20260507223023 | 79 | 330 | 1.0 | 6.0 | 0.00 | 0.01 | 0.00 | 76 | 1012.8 |
| 20260507222506 | 79 | 70 | 2.0 | 5.0 | 0.00 | 0.01 | 0.00 | 76 | 1012.8 |
| 20260507222007 | 79 | 75 | 2.0 | 5.0 | 0.00 | 0.01 | 0.00 | 77 | 1012.8 |
| 20260507221518 | 79 | 314 | 2.0 | 5.0 | 0.00 | 0.01 | 0.00 | 76 | 1012.8 |
| 20260507221013 | 79 | 65 | 1.0 | 6.0 | 0.00 | 0.01 | 0.00 | 76 | 1012.9 |
| 20260507220511 | 79 | 41 | 1.0 | 6.0 | 0.00 | 0.01 | 0.00 | 76 | 1012.9 |
| 20260507220023 | 79 | 111 | 2.0 | 6.0 | 0.00 | 0.01 | 0.00 | 76 | 1013.0 |
| 20260507215512 | 79 | 344 | 3.0 | 8.0 | 0.00 | 0.01 | 0.00 | 75 | 1013.0 |
| 20260507215013 | 80 | 334 | 2.0 | 8.0 | 0.00 | 0.01 | 0.00 | 75 | 1013.2 |
| 20260507214515 | 81 | 25 | 2.0 | 10.0 | 0.00 | 0.01 | 0.00 | 75 | 1013.2 |
| 20260507214007 | 81 | 44 | 2.0 | 10.0 | 0.00 | 0.01 | 0.00 | 74 | 1013.4 |
| 20260507213510 | 81 | 119 | 2.0 | 7.0 | 0.00 | 0.01 | 0.00 | 75 | 1013.4 |
| 20260507213026 | 82 | 51 | 1.0 | 7.0 | 0.00 | 0.01 | 0.00 | 74 | 1013.4 |
| 20260507212510 | 81 | 65 | 3.0 | 6.0 | 0.00 | 0.01 | 0.00 | 75 | 1013.5 |
| 20260507212011 | 81 | 85 | 2.0 | 7.0 | 0.00 | 0.01 | 0.00 | 72 | 1013.5 |
| 20260507211521 | 82 | 51 | 3.0 | 7.0 | 0.00 | 0.01 | 0.00 | 74 | 1013.6 |
| 20260507211013 | 82 | 229 | 2.0 | 6.0 | 0.00 | 0.01 | 0.00 | 76 | 1013.6 |
| 20260507210509 | 81 | 265 | 2.0 | 6.0 | 0.00 | 0.01 | 0.00 | 74 | 1013.7 |
| 20260507210019 | 81 | 101 | 2.0 | 6.0 | 0.00 | 0.01 | 0.00 | 76 | 1013.8 |
| 20260507205508 | 81 | 9 | 3.0 | 7.0 | 0.00 | 0.01 | 0.00 | 72 | 1013.8 |
| 20260507205013 | 82 | 51 | 2.0 | 8.0 | 0.00 | 0.01 | 0.00 | 74 | 1013.8 |
| 20260507204521 | 82 | 93 | 2.0 | 8.0 | 0.00 | 0.01 | 0.00 | 75 | 1013.9 |
| 20260507204012 | 81 | 65 | 2.0 | 7.0 | 0.00 | 0.01 | 0.00 | 77 | 1014.0 |
| 20260507203510 | 81 | 41 | 1.0 | 7.0 | 0.00 | 0.01 | 0.00 | 75 | 1014.0 |
| 20260507203026 | 81 | 34 | 2.0 | 6.0 | 0.00 | 0.01 | 0.00 | 75 | 1013.9 |
| 20260507202506 | 80 | 93 | 1.0 | 8.0 | 0.00 | 0.01 | 0.00 | 77 | 1014.1 |
| 20260507202006 | 80 | 76 | 1.0 | 8.0 | 0.00 | 0.01 | 0.00 | 76 | 1014.0 |
| 20260507201521 | 80 | 88 | 2.0 | 9.0 | 0.00 | 0.01 | 0.00 | 76 | 1014.0 |
| 20260507201010 | 80 | 9 | 2.0 | 9.0 | 0.00 | 0.01 | 0.00 | 77 | 1014.1 |
| 20260507200509 | 80 | 51 | 3.0 | 7.0 | 0.00 | 0.01 | 0.00 | 75 | 1014.2 |
| 20260507200029 | 80 | 101 | 1.0 | 8.0 | 0.00 | 0.01 | 0.00 | 76 | 1014.1 |
| 20260507195507 | 80 | 42 | 3.0 | 8.0 | 0.00 | 0.01 | 0.00 | 75 | 1014.2 |
| 20260507195008 | 79 | 93 | 2.0 | 8.0 | 0.00 | 0.01 | 0.00 | 78 | 1014.2 |
| 20260507194514 | 79 | 46 | 3.0 | 8.0 | 0.00 | 0.01 | 0.00 | 74 | 1014.2 |
| 20260507194005 | 79 | 101 | 2.0 | 7.0 | 0.00 | 0.01 | 0.00 | 78 | 1014.3 |
| 20260507193507 | 78 | 67 | 3.0 | 9.0 | 0.00 | 0.01 | 0.00 | 78 | 1014.4 |
| 20260507193024 | 77 | 71 | 3.0 | 9.0 | 0.00 | 0.01 | 0.00 | 81 | 1014.4 |
| 20260507192510 | 76 | 51 | 1.0 | 5.0 | 0.00 | 0.01 | 0.00 | 78 | 1014.4 |
| 20260507192016 | 75 | 84 | 2.0 | 10.0 | 0.00 | 0.01 | 0.00 | 80 | 1014.6 |
| 20260507191524 | 75 | 40 | 3.0 | 10.0 | 0.00 | 0.01 | 0.00 | 78 | 1015.0 |
| 20260507191010 | 75 | 67 | 2.0 | 10.0 | 0.00 | 0.01 | 0.00 | 78 | 1015.1 |
| 20260507190506 | 75 | 96 | 4.0 | 10.0 | 0.00 | 0.01 | 0.00 | 79 | 1015.2 |
| 20260507190018 | 76 | 329 | 4.0 | 9.0 | 0.00 | 0.01 | 0.00 | 78 | 1015.2 |
| 20260507185507 | 75 | 76 | 3.0 | 8.0 | 0.00 | 0.01 | 0.00 | 80 | 1015.3 |
| 20260507185008 | 75 | 49 | 2.0 | 8.0 | 0.00 | 0.01 | 0.00 | 80 | 1015.4 |
| 20260507184522 | 74 | 323 | 2.0 | 8.0 | 0.00 | 0.01 | 0.00 | 82 | 1015.3 |
| 20260507184009 | 74 | 9 | 2.0 | 8.0 | 0.00 | 0.01 | 0.00 | 82 | 1015.2 |
| 20260507183508 | 73 | 51 | 3.0 | 8.0 | 0.00 | 0.01 | 0.00 | 81 | 1015.3 |
| 20260507183035 | 73 | 34 | 3.0 | 10.0 | 0.00 | 0.01 | 0.00 | 81 | 1015.4 |
| 20260507182510 | 73 | 22 | 1.0 | 10.0 | 0.00 | 0.01 | 0.00 | 81 | 1015.4 |
| 20260507182007 | 73 | 31 | 3.0 | 10.0 | 0.00 | 0.01 | 0.00 | 79 | 1015.4 |
| 20260507181522 | 74 | 76 | 2.0 | 9.0 | 0.00 | 0.01 | 0.00 | 80 | 1015.4 |
| 20260507181013 | 74 | 13 | 3.0 | 12.0 | 0.00 | 0.01 | 0.00 | 79 | 1015.4 |
| 20260507180509 | 74 | 60 | 3.0 | 12.0 | 0.00 | 0.01 | 0.00 | 80 | 1015.5 |
| 20260507180036 | 73 | 9 | 4.0 | 13.0 | 0.00 | 0.01 | 0.00 | 81 | 1015.5 |
| 20260507175513 | 73 | 243 | 4.0 | 13.0 | 0.00 | 0.01 | 0.00 | 81 | 1015.7 |
| 20260507175011 | 73 | 17 | 3.0 | 11.0 | 0.00 | 0.01 | 0.00 | 81 | 1015.8 |
| 20260507174532 | 73 | 347 | 4.0 | 11.0 | 0.00 | 0.01 | 0.00 | 81 | 1016.0 |
| 20260507174010 | 73 | 344 | 3.0 | 11.0 | 0.00 | 0.01 | 0.00 | 81 | 1015.9 |
| 20260507173515 | 73 | 51 | 3.0 | 8.0 | 0.00 | 0.01 | 0.00 | 82 | 1016.0 |
| 20260507173024 | 73 | 342 | 3.0 | 9.0 | 0.00 | 0.01 | 0.00 | 81 | 1016.0 |
| 20260507172508 | 72 | 265 | 4.0 | 9.0 | 0.00 | 0.01 | 0.00 | 82 | 1016.2 |
| 20260507172013 | 72 | 67 | 2.0 | 9.0 | 0.00 | 0.01 | 0.00 | 82 | 1016.2 |
| 20260507171527 | 71 | 34 | 3.0 | 8.0 | 0.00 | 0.01 | 0.00 | 83 | 1016.4 |
| 20260507171009 | 70 | 265 | 1.0 | 7.0 | 0.00 | 0.01 | 0.00 | 83 | 1016.4 |
| 20260507170511 | 69 | 9 | 2.0 | 8.0 | 0.00 | 0.01 | 0.00 | 83 | 1016.4 |
| 20260507170022 | 69 | 74 | 2.0 | 12.0 | 0.00 | 0.01 | 0.00 | 82 | 1016.5 |
| 20260507165508 | 69 | 51 | 3.0 | 12.0 | 0.00 | 0.01 | 0.00 | 82 | 1016.5 |
| 20260507165013 | 69 | 44 | 2.0 | 8.0 | 0.00 | 0.01 | 0.00 | 83 | 1016.4 |
| 20260507164524 | 70 | 9 | 3.0 | 8.0 | 0.00 | 0.01 | 0.00 | 83 | 1016.3 |
| 20260507164013 | 70 | 93 | 1.0 | 7.0 | 0.00 | 0.01 | 0.00 | 84 | 1016.4 |
| 20260507163508 | 69 | 47 | 3.0 | 7.0 | 0.00 | 0.01 | 0.00 | 84 | 1016.3 |
| 20260507163025 | 69 | 332 | 1.0 | 8.0 | 0.00 | 0.01 | 0.00 | 84 | 1016.3 |
| 20260507162508 | 69 | 56 | 2.0 | 8.0 | 0.00 | 0.01 | 0.00 | 84 | 1016.3 |
| 20260507162011 | 69 | 27 | 2.0 | 7.0 | 0.00 | 0.01 | 0.00 | 85 | 1016.1 |
| 20260507161538 | 68 | 123 | 1.0 | 8.0 | 0.00 | 0.01 | 0.00 | 85 | 1016.0 |
| 20260507161008 | 68 | 9 | 3.0 | 8.0 | 0.00 | 0.01 | 0.00 | 85 | 1016.0 |
| 20260507160510 | 68 | 78 | 1.0 | 9.0 | 0.00 | 0.01 | 0.00 | 86 | 1015.9 |
| 20260507160034 | 67 | 332 | 3.0 | 9.0 | 0.00 | 0.01 | 0.00 | 86 | 1015.7 |
| 20260507155511 | 67 | 15 | 2.0 | 8.0 | 0.00 | 0.01 | 0.00 | 86 | 1015.8 |
| 20260507155010 | 66 | 153 | 2.0 | 8.0 | 0.00 | 0.01 | 0.00 | 86 | 1015.9 |
| 20260507154518 | 66 | 15 | 2.0 | 8.0 | 0.00 | 0.01 | 0.00 | 86 | 1016.0 |
| 20260507154010 | 67 | 51 | 2.0 | 8.0 | 0.00 | 0.01 | 0.00 | 86 | 1016.0 |
| 20260507153507 | 67 | 9 | 2.0 | 8.0 | 0.00 | 0.01 | 0.00 | 87 | 1015.8 |
| 20260507153026 | 66 | 51 | 3.0 | 8.0 | 0.00 | 0.01 | 0.00 | 87 | 1015.8 |
| 20260507152511 | 66 | 328 | 2.0 | 7.0 | 0.00 | 0.01 | 0.00 | 87 | 1015.9 |
| 20260507152008 | 65 | 67 | 3.0 | 7.0 | 0.00 | 0.01 | 0.00 | 87 | 1016.0 |
| 20260507151538 | 65 | 137 | 1.0 | 8.0 | 0.00 | 0.01 | 0.00 | 87 | 1016.1 |
| 20260507151009 | 65 | 23 | 2.0 | 8.0 | 0.00 | 0.01 | 0.00 | 87 | 1016.2 |
| 20260507150510 | 65 | 76 | 1.0 | 9.0 | 0.00 | 0.01 | 0.00 | 88 | 1016.2 |
| 20260507150021 | 64 | 51 | 2.0 | 13.0 | 0.00 | 0.01 | 0.00 | 88 | 1016.2 |
| 20260507145507 | 64 | 9 | 2.0 | 13.0 | 0.00 | 0.01 | 0.00 | 88 | 1016.2 |
| 20260507145009 | 64 | 9 | 4.0 | 13.0 | 0.00 | 0.01 | 0.00 | 88 | 1016.3 |
| 20260507144524 | 64 | 15 | 2.0 | 12.0 | 0.00 | 0.01 | 0.00 | 88 | 1016.1 |
| 20260507144011 | 64 | 19 | 3.0 | 12.0 | 0.00 | 0.01 | 0.00 | 88 | 1016.2 |
| 20260507143508 | 64 | 80 | 3.0 | 9.0 | 0.00 | 0.01 | 0.00 | 88 | 1016.1 |
| 20260507143014 | 64 | 45 | 4.0 | 9.0 | 0.00 | 0.01 | 0.00 | 88 | 1016.0 |
| 20260507142507 | 64 | 13 | 3.0 | 8.0 | 0.00 | 0.01 | 0.00 | 89 | 1015.8 |
| 20260507142010 | 64 | 56 | 2.0 | 8.0 | 0.00 | 0.01 | 0.00 | 89 | 1015.6 |
| 20260507141526 | 64 | 34 | 2.0 | 8.0 | 0.00 | 0.01 | 0.00 | 89 | 1015.6 |
| 20260507141007 | 64 | 41 | 1.0 | 8.0 | 0.00 | 0.01 | 0.00 | 89 | 1015.7 |
| 20260507140503 | 64 | 15 | 2.0 | 9.0 | 0.00 | 0.01 | 0.00 | 89 | 1015.4 |
| 20260507140017 | 64 | 44 | 3.0 | 9.0 | 0.00 | 0.01 | 0.00 | 88 | 1015.2 |
| 20260507135506 | 64 | 54 | 3.0 | 10.0 | 0.00 | 0.01 | 0.00 | 88 | 1015.1 |
| 20260507135011 | 65 | 225 | 4.0 | 11.0 | 0.00 | 0.01 | 0.00 | 89 | 1015.0 |
| 20260507134529 | 64 | 78 | 2.0 | 11.0 | 0.00 | 0.01 | 0.00 | 89 | 1014.9 |
| 20260507134012 | 65 | 32 | 3.0 | 11.0 | 0.00 | 0.01 | 0.00 | 89 | 1015.1 |
| 20260507133512 | 65 | 78 | 4.0 | 11.0 | 0.00 | 0.01 | 0.00 | 89 | 1015.1 |
| 20260507133008 | 65 | 17 | 3.0 | 11.0 | 0.00 | 0.01 | 0.00 | 89 | 1015.2 |
| 20260507132507 | 65 | 98 | 2.0 | 10.0 | 0.00 | 0.01 | 0.00 | 89 | 1015.6 |
| 20260507132010 | 65 | 46 | 3.0 | 10.0 | 0.00 | 0.01 | 0.00 | 89 | 1015.9 |
| 20260507131519 | 65 | 105 | 3.0 | 10.0 | 0.00 | 0.01 | 0.00 | 89 | 1016.0 |
| 20260507131010 | 65 | 17 | 3.0 | 9.0 | 0.00 | 0.01 | 0.00 | 89 | 1016.0 |
| 20260507130511 | 65 | 70 | 3.0 | 9.0 | 0.00 | 0.01 | 0.00 | 89 | 1015.9 |
| 20260507130026 | 65 | 17 | 2.0 | 8.0 | 0.00 | 0.01 | 0.00 | 89 | 1015.9 |
| 20260507125516 | 65 | 116 | 2.0 | 8.0 | 0.00 | 0.01 | 0.00 | 89 | 1015.9 |
| 20260507125003 | 65 | 325 | 2.0 | 11.0 | 0.00 | 0.01 | 0.00 | 89 | 1015.8 |
| 20260507124509 | 65 | 33 | 3.0 | 11.0 | 0.00 | 0.01 | 0.00 | 89 | 1015.8 |
| 20260507124008 | 65 | 21 | 3.0 | 9.0 | 0.00 | 0.01 | 0.00 | 89 | 1015.7 |
| 20260507123509 | 65 | 83 | 2.0 | 9.0 | 0.00 | 0.01 | 0.00 | 89 | 1015.8 |
| 20260507123021 | 65 | 18 | 1.0 | 8.0 | 0.00 | 0.01 | 0.00 | 89 | 1015.5 |
| 20260507122509 | 65 | 22 | 2.0 | 8.0 | 0.00 | 0.01 | 0.00 | 89 | 1015.3 |
| 20260507122012 | 65 | 338 | 2.0 | 5.0 | 0.00 | 0.01 | 0.00 | 89 | 1015.1 |
| 20260507121526 | 65 | 302 | 1.0 | 8.0 | 0.00 | 0.01 | 0.00 | 89 | 1015.1 |
| 20260507121004 | 65 | 51 | 2.0 | 8.0 | 0.00 | 0.01 | 0.00 | 89 | 1015.0 |
| 20260507120511 | 65 | 36 | 2.0 | 9.0 | 0.00 | 0.01 | 0.00 | 89 | 1014.8 |
| 20260507120015 | 65 | 32 | 2.0 | 9.0 | 0.00 | 0.01 | 0.00 | 89 | 1014.7 |
| 20260507115509 | 66 | 44 | 2.0 | 8.0 | 0.00 | 0.01 | 0.00 | 89 | 1014.6 |
| 20260507115007 | 66 | 58 | 2.0 | 10.0 | 0.00 | 0.01 | 0.00 | 89 | 1014.8 |
| 20260507114529 | 66 | 159 | 2.0 | 10.0 | 0.00 | 0.01 | 0.00 | 89 | 1014.6 |
| 20260507114007 | 66 | 265 | 2.0 | 10.0 | 0.00 | 0.01 | 0.00 | 89 | 1014.3 |
| 20260507113512 | 66 | 347 | 3.0 | 10.0 | 0.00 | 0.01 | 0.00 | 89 | 1013.7 |
| 20260507113028 | 66 | 24 | 2.0 | 9.0 | 0.00 | 0.01 | 0.00 | 89 | 1013.8 |
| 20260507112510 | 66 | 41 | 2.0 | 9.0 | 0.00 | 0.01 | 0.00 | 88 | 1013.9 |
| 20260507112007 | 66 | 93 | 1.0 | 7.0 | 0.00 | 0.01 | 0.00 | 88 | 1013.9 |
| 20260507111530 | 66 | 346 | 2.0 | 7.0 | 0.00 | 0.01 | 0.00 | 88 | 1013.9 |
| 20260507111010 | 66 | 109 | 1.0 | 6.0 | 0.00 | 0.01 | 0.00 | 88 | 1013.8 |
| 20260507110511 | 66 | 79 | 1.0 | 5.0 | 0.00 | 0.01 | 0.00 | 88 | 1013.7 |
| 20260507110030 | 66 | 342 | 1.0 | 6.0 | 0.00 | 0.01 | 0.00 | 88 | 1013.9 |
| 20260507105508 | 66 | 9 | 1.0 | 6.0 | 0.00 | 0.01 | 0.00 | 88 | 1013.8 |
| 20260507105010 | 66 | 46 | 2.0 | 5.0 | 0.00 | 0.01 | 0.00 | 88 | 1013.8 |
| 20260507104510 | 66 | 41 | 1.0 | 5.0 | 0.00 | 0.01 | 0.00 | 88 | 1013.8 |
| 20260507104007 | 66 | 34 | 1.0 | 3.0 | 0.00 | 0.01 | 0.00 | 88 | 1013.8 |
| 20260507103507 | 66 | 93 | 1.0 | 4.0 | 0.00 | 0.01 | 0.00 | 88 | 1013.5 |
| 20260507103023 | 66 | 93 | 1.0 | 4.0 | 0.00 | 0.01 | 0.00 | 88 | 1013.7 |
| 20260507102507 | 66 | 56 | 1.0 | 4.0 | 0.00 | 0.01 | 0.00 | 88 | 1013.6 |
| 20260507102010 | 66 | 30 | 0.0 | 7.0 | 0.00 | 0.01 | 0.00 | 88 | 1013.7 |
| 20260507101524 | 66 | 338 | 2.0 | 7.0 | 0.00 | 0.01 | 0.00 | 89 | 1013.5 |
| 20260507101014 | 66 | 349 | 2.0 | 6.0 | 0.00 | 0.01 | 0.00 | 89 | 1013.6 |
| 20260507100503 | 66 | 16 | 1.0 | 4.0 | 0.00 | 0.01 | 0.00 | 89 | 1013.4 |
| 20260507100016 | 66 | 309 | 0.0 | 4.0 | 0.00 | 0.01 | 0.00 | 89 | 1013.4 |
| 20260507095509 | 66 | 107 | 1.0 | 4.0 | 0.00 | 0.01 | 0.00 | 89 | 1013.3 |
| 20260507095010 | 66 | 51 | 1.0 | 4.0 | 0.00 | 0.01 | 0.00 | 89 | 1013.4 |
| 20260507094522 | 66 | 316 | 0.0 | 6.0 | 0.00 | 0.01 | 0.00 | 89 | 1013.3 |
| 20260507094007 | 66 | 19 | 1.0 | 8.0 | 0.00 | 0.01 | 0.00 | 89 | 1013.2 |
| 20260507093509 | 65 | 26 | 3.0 | 8.0 | 0.00 | 0.01 | 0.00 | 89 | 1013.1 |
| 20260507093028 | 66 | 325 | 1.0 | 4.0 | 0.00 | 0.01 | 0.00 | 89 | 1013.1 |
| 20260507092504 | 65 | 137 | 0.0 | 8.0 | 0.00 | 0.01 | 0.00 | 88 | 1013.0 |
| 20260507092007 | 65 | 83 | 2.0 | 8.0 | 0.00 | 0.01 | 0.00 | 89 | 1012.5 |
| 20260507091520 | 66 | 85 | 3.0 | 7.0 | 0.00 | 0.01 | 0.00 | 88 | 1012.7 |
| 20260507091009 | 66 | 213 | 1.0 | 4.0 | 0.00 | 0.01 | 0.00 | 88 | 1012.8 |
| 20260507090511 | 66 | 317 | 2.0 | 9.0 | 0.00 | 0.01 | 0.00 | 88 | 1012.9 |
| 20260507090035 | 66 | 61 | 2.0 | 9.0 | 0.00 | 0.01 | 0.00 | 88 | 1012.8 |
| 20260507085508 | 66 | 334 | 1.0 | 8.0 | 0.00 | 0.01 | 0.00 | 88 | 1012.9 |
| 20260507085009 | 66 | 80 | 1.0 | 8.0 | 0.00 | 0.01 | 0.00 | 88 | 1013.0 |
| 20260507084524 | 66 | 9 | 1.0 | 6.0 | 0.00 | 0.01 | 0.00 | 88 | 1013.0 |
| 20260507084009 | 66 | 42 | 2.0 | 6.0 | 0.00 | 0.01 | 0.00 | 88 | 1013.1 |
| 20260507083507 | 66 | 80 | 2.0 | 6.0 | 0.00 | 0.01 | 0.00 | 88 | 1013.2 |
| 20260507083020 | 66 | 93 | 1.0 | 5.0 | 0.00 | 0.01 | 0.00 | 88 | 1013.2 |
| 20260507082507 | 66 | 13 | 1.0 | 11.0 | 0.00 | 0.01 | 0.00 | 88 | 1013.3 |
| 20260507082018 | 66 | 51 | 2.0 | 11.0 | 0.00 | 0.01 | 0.00 | 88 | 1013.2 |
| 20260507081528 | 66 | 40 | 2.0 | 8.0 | 0.00 | 0.01 | 0.00 | 88 | 1013.1 |
| 20260507081010 | 66 | 26 | 1.0 | 10.0 | 0.00 | 0.01 | 0.00 | 87 | 1013.0 |
| 20260507080506 | 66 | 111 | 4.0 | 10.0 | 0.00 | 0.01 | 0.00 | 87 | 1013.1 |
| 20260507080017 | 66 | 17 | 2.0 | 8.0 | 0.00 | 0.01 | 0.00 | 87 | 1013.0 |
| 20260507075508 | 66 | 314 | 2.0 | 8.0 | 0.00 | 0.01 | 0.00 | 87 | 1013.1 |
| 20260507075006 | 66 | 325 | 3.0 | 8.0 | 0.00 | 0.01 | 0.00 | 87 | 1013.1 |
| 20260507074536 | 66 | 9 | 1.0 | 5.0 | 0.00 | 0.01 | 0.00 | 88 | 1013.1 |
| 20260507074008 | 66 | 9 | 1.0 | 6.0 | 0.00 | 0.01 | 0.00 | 87 | 1013.0 |
| 20260507073510 | 66 | 316 | 2.0 | 6.0 | 0.00 | 0.01 | 0.00 | 87 | 1013.2 |
| 20260507073026 | 66 | 80 | 2.0 | 8.0 | 0.00 | 0.01 | 0.00 | 87 | 1013.2 |
| 20260507072507 | 66 | 90 | 2.0 | 8.0 | 0.00 | 0.01 | 0.00 | 87 | 1013.3 |
| 20260507072011 | 66 | 51 | 1.0 | 8.0 | 0.00 | 0.01 | 0.00 | 87 | 1013.3 |
| 20260507071518 | 66 | 313 | 2.0 | 8.0 | 0.00 | 0.01 | 0.00 | 87 | 1013.4 |
| 20260507071009 | 66 | 34 | 1.0 | 10.0 | 0.00 | 0.01 | 0.00 | 87 | 1013.2 |
| 20260507070511 | 66 | 26 | 1.0 | 10.0 | 0.00 | 0.01 | 0.00 | 87 | 1013.4 |
| 20260507070012 | 66 | 22 | 2.0 | 10.0 | 0.00 | 0.01 | 0.00 | 87 | 1013.7 |
| 20260507065503 | 66 | 269 | 3.0 | 10.0 | 0.00 | 0.01 | 0.00 | 87 | 1013.6 |
| 20260507065003 | 67 | 295 | 2.0 | 9.0 | 0.00 | 0.01 | 0.00 | 87 | 1013.5 |
| 20260507064513 | 67 | 28 | 2.0 | 9.0 | 0.00 | 0.01 | 0.00 | 87 | 1013.5 |
| 20260507064007 | 67 | 67 | 2.0 | 9.0 | 0.00 | 0.01 | 0.00 | 87 | 1013.5 |
| 20260507063508 | 67 | 338 | 3.0 | 9.0 | 0.00 | 0.01 | 0.00 | 87 | 1013.5 |
| 20260507063025 | 67 | 317 | 2.0 | 9.0 | 0.00 | 0.01 | 0.00 | 87 | 1013.5 |
| 20260507062510 | 67 | 27 | 2.0 | 12.0 | 0.00 | 0.01 | 0.00 | 87 | 1013.3 |
| 20260507062010 | 67 | 341 | 2.0 | 12.0 | 0.00 | 0.01 | 0.00 | 87 | 1013.2 |
| 20260507061507 | 67 | 54 | 4.0 | 12.0 | 0.00 | 0.01 | 0.00 | 87 | 1013.5 |
| 20260507061006 | 67 | 319 | 3.0 | 10.0 | 0.00 | 0.01 | 0.00 | 87 | 1013.5 |
| 20260507060506 | 67 | 34 | 2.0 | 10.0 | 0.00 | 0.01 | 0.00 | 87 | 1013.2 |
| 20260507060017 | 67 | 9 | 1.0 | 10.0 | 0.00 | 0.01 | 0.00 | 87 | 1013.1 |
| 20260507055506 | 67 | 13 | 3.0 | 10.0 | 0.00 | 0.01 | 0.00 | 87 | 1013.0 |
| 20260507055011 | 67 | 9 | 2.0 | 9.0 | 0.00 | 0.01 | 0.00 | 87 | 1013.0 |
| 20260507054522 | 67 | 34 | 2.0 | 12.0 | 0.00 | 0.01 | 0.00 | 87 | 1013.1 |
| 20260507054013 | 67 | 349 | 4.0 | 12.0 | 0.00 | 0.01 | 0.00 | 87 | 1013.2 |
| 20260507053504 | 67 | 16 | 4.0 | 10.0 | 0.00 | 0.01 | 0.00 | 87 | 1013.2 |
| 20260507053010 | 67 | 16 | 3.0 | 10.0 | 0.00 | 0.01 | 0.00 | 87 | 1013.1 |
| 20260507052503 | 67 | 93 | 2.0 | 9.0 | 0.00 | 0.01 | 0.00 | 87 | 1012.9 |
| 20260507052008 | 67 | 30 | 2.0 | 10.0 | 0.00 | 0.01 | 0.00 | 87 | 1012.8 |
| 20260507051519 | 68 | 344 | 3.0 | 10.0 | 0.00 | 0.01 | 0.00 | 87 | 1012.8 |
| 20260507051007 | 68 | 29 | 4.0 | 10.0 | 0.00 | 0.01 | 0.00 | 87 | 1012.7 |
| 20260507050514 | 68 | 26 | 3.0 | 12.0 | 0.00 | 0.01 | 0.00 | 87 | 1012.8 |
| 20260507050025 | 68 | 350 | 3.0 | 12.0 | 0.00 | 0.01 | 0.00 | 87 | 1012.9 |
| 20260507045503 | 68 | 19 | 2.0 | 9.0 | 0.00 | 0.01 | 0.01 | 87 | 1012.8 |
| 20260507045003 | 68 | 321 | 3.0 | 9.0 | 0.00 | 0.01 | 0.01 | 87 | 1012.9 |
| 20260507044510 | 68 | 18 | 3.0 | 8.0 | 0.00 | 0.01 | 0.01 | 87 | 1012.8 |
| 20260507044008 | 69 | 316 | 1.0 | 9.0 | 0.00 | 0.01 | 0.01 | 86 | 1012.7 |
| 20260507043507 | 69 | 93 | 3.0 | 10.0 | 0.00 | 0.01 | 0.01 | 86 | 1012.7 |
| 20260507043020 | 69 | 325 | 1.0 | 10.0 | 0.00 | 0.01 | 0.01 | 86 | 1012.7 |
| 20260507042508 | 69 | 342 | 4.0 | 12.0 | 0.00 | 0.01 | 0.01 | 86 | 1012.6 |
| 20260507042010 | 69 | 309 | 4.0 | 12.0 | 0.00 | 0.01 | 0.01 | 86 | 1012.6 |
| 20260507041510 | 69 | 34 | 3.0 | 10.0 | 0.00 | 0.01 | 0.01 | 86 | 1012.7 |
| 20260507041008 | 69 | 325 | 1.0 | 10.0 | 0.00 | 0.01 | 0.01 | 86 | 1012.7 |
| 20260507040506 | 70 | 347 | 3.0 | 10.0 | 0.00 | 0.01 | 0.01 | 86 | 1012.7 |
| 20260507040017 | 70 | 342 | 2.0 | 8.0 | 0.00 | 0.01 | 0.01 | 85 | 1012.9 |
| 20260507035507 | 70 | 93 | 3.0 | 12.0 | 0.00 | 0.01 | 0.01 | 85 | 1012.9 |
| 20260507035011 | 70 | 51 | 2.0 | 12.0 | 0.00 | 0.01 | 0.01 | 85 | 1012.9 |
| 20260507034544 | 70 | 341 | 2.0 | 10.0 | 0.00 | 0.01 | 0.01 | 85 | 1012.8 |
| 20260507034009 | 70 | 323 | 4.0 | 10.0 | 0.00 | 0.01 | 0.01 | 85 | 1012.7 |
| 20260507033507 | 71 | 302 | 4.0 | 11.0 | 0.00 | 0.01 | 0.01 | 85 | 1012.6 |
| 20260507033010 | 71 | 19 | 5.0 | 11.0 | 0.00 | 0.01 | 0.01 | 85 | 1012.6 |
| 20260507032507 | 71 | 349 | 4.0 | 10.0 | 0.00 | 0.01 | 0.01 | 85 | 1012.4 |
| 20260507032007 | 71 | 63 | 3.0 | 12.0 | 0.00 | 0.01 | 0.01 | 85 | 1012.2 |
| 20260507031520 | 71 | 16 | 4.0 | 12.0 | 0.00 | 0.01 | 0.01 | 86 | 1012.1 |
| 20260507031007 | 71 | 30 | 4.0 | 13.0 | 0.00 | 0.01 | 0.01 | 86 | 1012.1 |
| 20260507030511 | 71 | 265 | 2.0 | 13.0 | 0.00 | 0.01 | 0.01 | 85 | 1012.0 |
| 20260507030027 | 71 | 332 | 3.0 | 13.0 | 0.00 | 0.01 | 0.01 | 85 | 1011.9 |
| 20260507025505 | 72 | 38 | 3.0 | 10.0 | 0.00 | 0.01 | 0.01 | 85 | 1011.9 |
| 20260507025004 | 72 | 29 | 3.0 | 10.0 | 0.00 | 0.01 | 0.01 | 85 | 1011.7 |
| 20260507024526 | 72 | 309 | 2.0 | 10.0 | 0.00 | 0.01 | 0.01 | 86 | 1011.7 |
| 20260507024008 | 72 | 291 | 4.0 | 11.0 | 0.00 | 0.01 | 0.01 | 86 | 1011.7 |
| 20260507023512 | 72 | 43 | 3.0 | 11.0 | 0.00 | 0.01 | 0.01 | 86 | 1011.5 |
| 20260507023022 | 72 | 22 | 3.0 | 11.0 | 0.00 | 0.01 | 0.01 | 85 | 1011.4 |
| 20260507022508 | 72 | 321 | 4.0 | 11.0 | 0.00 | 0.01 | 0.01 | 85 | 1011.2 |
| 20260507022015 | 72 | 25 | 3.0 | 11.0 | 0.00 | 0.01 | 0.01 | 86 | 1011.1 |
| 20260507021508 | 72 | 295 | 3.0 | 11.0 | 0.00 | 0.01 | 0.01 | 85 | 1011.1 |
| 20260507021007 | 72 | 334 | 4.0 | 11.0 | 0.00 | 0.01 | 0.01 | 85 | 1010.9 |
| 20260507020507 | 72 | 26 | 3.0 | 11.0 | 0.00 | 0.01 | 0.01 | 85 | 1010.8 |
| 20260507020016 | 72 | 33 | 5.0 | 11.0 | 0.00 | 0.01 | 0.01 | 85 | 1010.8 |
| 20260507015513 | 73 | 15 | 3.0 | 9.0 | 0.00 | 0.01 | 0.01 | 85 | 1010.9 |
| 20260507015008 | 73 | 27 | 3.0 | 13.0 | 0.00 | 0.01 | 0.01 | 86 | 1010.9 |
| 20260507014536 | 73 | 9 | 4.0 | 13.0 | 0.00 | 0.01 | 0.01 | 86 | 1010.7 |
| 20260507014009 | 73 | 298 | 4.0 | 10.0 | 0.00 | 0.01 | 0.01 | 86 | 1010.6 |
| 20260507013504 | 73 | 339 | 2.0 | 9.0 | 0.00 | 0.01 | 0.01 | 87 | 1010.6 |
| 20260507013013 | 73 | 18 | 3.0 | 9.0 | 0.00 | 0.01 | 0.01 | 86 | 1010.4 |